Big Stone Lake Weather Center

Moon Phase Calendar



Big Stone Lake Water Level
Online Cameras

 


      

Current Conditions in Schmidt Landing
10/28/2020 1:39:27 AM

34°F
Feels Like 26
Clear
Humidity
64%
Pressure
29.83"
Wind
6.9 mph (NW)
Dew Point
24°F
UV Index
2/10 (Low)
Visibility
6 mi

Hourly Forecast

Date & Time Wed, Oct 28
1:00 AM
Wed, Oct 28
2:00 AM
Wed, Oct 28
3:00 AM
Wed, Oct 28
4:00 AM
Wed, Oct 28
5:00 AM
Wed, Oct 28
6:00 AM
Wed, Oct 28
7:00 AM
Wed, Oct 28
8:00 AM
Wed, Oct 28
9:00 AM
Wed, Oct 28
10:00 AM
Wed, Oct 28
11:00 AM
Wed, Oct 28
12:00 PM
Wed, Oct 28
1:00 PM
Wed, Oct 28
2:00 PM
Wed, Oct 28
3:00 PM
Wed, Oct 28
4:00 PM
Wed, Oct 28
5:00 PM
Wed, Oct 28
6:00 PM
Wed, Oct 28
7:00 PM
Wed, Oct 28
8:00 PM
Wed, Oct 28
9:00 PM
Wed, Oct 28
10:00 PM
Wed, Oct 28
11:00 PM
Thu, Oct 29
12:00 AM
Thu, Oct 29
1:00 AM
Thu, Oct 29
2:00 AM
Thu, Oct 29
3:00 AM
Thu, Oct 29
4:00 AM
Thu, Oct 29
5:00 AM
Thu, Oct 29
6:00 AM
Thu, Oct 29
7:00 AM
Thu, Oct 29
8:00 AM
Thu, Oct 29
9:00 AM
Thu, Oct 29
10:00 AM
Thu, Oct 29
11:00 AM
Thu, Oct 29
12:00 PM
Thu, Oct 29
1:00 PM
Thu, Oct 29
2:00 PM
Thu, Oct 29
3:00 PM
Thu, Oct 29
4:00 PM
Thu, Oct 29
5:00 PM
Thu, Oct 29
6:00 PM
Thu, Oct 29
7:00 PM
Thu, Oct 29
8:00 PM
Thu, Oct 29
9:00 PM
Thu, Oct 29
10:00 PM
Thu, Oct 29
11:00 PM
Fri, Oct 30
12:00 AM
Condition
Clear

Clear

Clear

Clear

Clear

Clear

Clear

Clouds

Clouds

Clouds

Clouds

Clouds

Clouds

Clouds

Clouds

Clouds

Clouds

Clouds

Clouds

Clouds

Clouds

Clouds

Clouds

Clouds

Clouds

Clear

Clear

Clear

Clear

Clear

Clear

Clear

Clouds

Clouds

Clouds

Clouds

Clouds

Clouds

Clouds

Clouds

Clouds

Clouds

Clouds

Clouds

Clouds

Clouds

Clouds

Clouds
Temperature 34°F34°F35°F35°F35°F36°F36°F36°F36°F36°F36°F36°F37°F37°F36°F36°F35°F34°F34°F33°F31°F30°F27°F26°F24°F23°F22°F22°F21°F20°F19°F18°F20°F23°F26°F27°F29°F31°F32°F32°F31°F30°F29°F30°F30°F30°F29°F29°F
Feels Like 21°F22°F24°F25°F24°F24°F25°F26°F26°F26°F26°F26°F27°F27°F26°F26°F25°F25°F25°F25°F24°F21°F19°F17°F16°F15°F14°F13°F13°F12°F12°F12°F13°F17°F20°F21°F23°F24°F26°F26°F24°F23°F21°F22°F22°F21°F21°F21°F
Cloudiness 1%1%0%0%0%0%7%99%100%93%85%82%75%28%36%46%55%63%69%100%87%68%55%44%36%0%0%0%0%0%0%0%25%42%50%56%58%50%38%59%68%74%78%100%100%100%100%100%
Visibility 6 mi6 mi6 mi6 mi6 mi6 mi6 mi6 mi6 mi6 mi6 mi6 mi6 mi4 mi3 mi0 mi0 mi0 mi0 mi5 mi6 mi6 mi6 mi6 mi6 mi6 mi6 mi6 mi6 mi6 mi6 mi6 mi6 mi6 mi6 mi6 mi6 mi6 mi6 mi6 mi6 mi6 mi6 mi6 mi1 mi2 mi6 mi6 mi
Precipitation 0%0%0%0%0%0%0%0%0%0%0%0%0%0%0%0%0%0%0%0%0%0%0%0%0%0%0%0%0%0%0%0%0%0%0%0%0%0%0%0%0%0%0%13%35%53%61%55%
Humidity 64%77%84%87%87%85%85%87%89%93%96%97%97%97%97%98%98%98%98%97%98%98%97%97%97%97%97%97%97%97%97%97%97%97%96%96%96%96%96%97%97%98%98%98%98%98%98%98%
Dew Point 24°F28°F30°F31°F32°F32°F32°F33°F33°F34°F35°F36°F36°F36°F36°F35°F34°F34°F33°F33°F30°F28°F25°F23°F22°F21°F20°F19°F19°F18°F17°F16°F17°F21°F23°F24°F25°F27°F28°F29°F28°F28°F27°F28°F29°F29°F28°F27°F
Pressure 29.83"29.85"29.88"29.91"29.88"29.88"29.91"29.91"29.94"29.97"29.97"30"30.03"30.06"30.06"30.06"30.09"30.12"30.15"30.18"30.21"30.24"30.24"30.24"30.24"30.27"30.27"30.27"30.27"30.27"30.27"30.27"30.3"30.3"30.27"30.24"30.24"30.21"30.18"30.18"30.18"30.15"30.15"30.15"30.15"30.15"30.15"30.15"
Wind Speed 15.6 mph14 mph12.7 mph11.5 mph12.9 mph13.7 mph13.5 mph11.7 mph12.7 mph12.2 mph13.1 mph12.4 mph12 mph12.6 mph12.9 mph12.6 mph11.7 mph10.9 mph9.9 mph8.5 mph6.8 mph7.6 mph7.5 mph7.2 mph6.8 mph6.2 mph5.8 mph6.1 mph5 mph4.9 mph3.7 mph1.9 mph2.6 mph2.8 mph2.3 mph3.9 mph3.9 mph4 mph4 mph4.4 mph4.8 mph6 mph5.8 mph6.6 mph6.8 mph8 mph8 mph7.3 mph
Wind
Direction
262°
W
264°
W
266°
W
261°
W
259°
W
265°
W
275°
W
270°
W
266°
W
270°
W
284°
WNW
283°
WNW
298°
WNW
309°
NW
316°
NW
321°
NW
326°
NW
332°
NNW
338°
NNW
342°
NNW
338°
NNW
341°
NNW
344°
NNW
345°
NNW
340°
NNW
333°
NNW
333°
NNW
331°
NNW
353°
N

N
357°
N
350°
N
267°
W
241°
WSW
188°
S
172°
S
173°
S
171°
S
171°
S
166°
SSE
163°
SSE
161°
SSE
169°
S
165°
SSE
165°
SSE
147°
SSE
139°
SE
127°
SE

Daily Forecast

Date High Low Precip. Humidity
Today
Oct 28

Clouds
37 °F
30 °F
0%
97%
Thursday
Oct 29

Clouds
32 °F
19 °F
53%
96%
Friday
Oct 30

Clouds
34 °F
28 °F
55%
95%
Saturday
Oct 31

Clouds
40 °F
30 °F
0%
89%
Sunday
Nov 1

Clouds
32 °F
24 °F
0%
91%
Monday
Nov 2

Clouds
45 °F
28 °F
0%
67%
Tuesday
Nov 3

Clear
58 °F
37 °F
0%
59%
Wednesday
Nov 4

Clouds
65 °F
45 °F
0%
39%
Thursday
Nov 5

Clouds
54 °F
38 °F
11%
64%
Friday
Nov 6

Clouds
39 °F
31 °F
83%
68%
Saturday
Nov 7

Rain
38 °F
31 °F
100%
89%
Sunday
Nov 8

Snow
29 °F
17 °F
100%
91%
Monday
Nov 9

Clear
28 °F
13 °F
0%
90%
Tuesday
Nov 10

Clear
29 °F
17 °F
0%
90%
Wednesday
Nov 11

Clouds
36 °F
24 °F
0%
85%
Thursday
Nov 12

Clear
39 °F
23 °F
0%
78%


Temperature 8-14 Day Outlook



Precipitation 8-14 Day Outlook




Quick Links
Big Stone Lake News
Big Stone Lake Photos
Big Stone Lake Videos




About Us
Contact Us
Site Map
Search Site
Advertise With Us
   
BigStone.USLakes.info
THE BIG STONE LAKE WEBSITE

Copyright 2020, Lakes Online
Privacy    |    Legal